{"data":{"norad_id":66994,"intl_designator":"2025-292B","name":"THE ARAB SATELLITE 813","alt_names":[],"object_type":"PAYLOAD","status":"ACTIVE","operator":null,"country":"UAE","launch_date":"2025-12-10","launch_site_code":"JSC","launch_vehicle":null,"mission":null,"orbit_class":"UNKNOWN","rcs_meters":null,"size_class":null,"mass_kg":null,"dimensions":null,"purposes":[],"wikipedia_slug":null,"has_3d_model":false,"image_url":null,"decayed_at":null,"tle_current":{"epoch":"2026-09-20T12:27:51.113376Z","epoch_age_seconds":110401,"freshness":"FRESH","line1":"1 66994U 25292B   26263.51934159  .00001993  00000+0  13641-3 0  9999","line2":"2 66994  97.6253 338.4312 0015235  40.0751 320.1598 15.07161341 42806","mean_motion":15.07161341,"eccentricity":0.0015235,"inclination_deg":97.6253,"raan_deg":338.4312,"arg_perigee_deg":40.0751,"mean_anomaly_deg":320.1598,"bstar":0.00013641,"rev_number":4280,"period_min":95.543851930581,"perigee_km":534.33192465511,"apogee_km":555.42635483291,"semimajor_km":6923.016139744,"source":"CELESTRAK","updated_at":"2026-09-21T09:00:16.365054Z"}}}